F1IRU-13 Weather Reports


Display with metric or nautical units.
time (UTC)temp
F
wind
direction
speed
MPH
gust
MPH
rain 1hr
in
rain 24hr
in
rain mn
in
humidity
%
barometer
mb
20260504214048 56 5 0.0 0.0 0.00 0.17 0.16 90 1010.6
20260504213522 56 5 0.0 0.0 0.00 0.17 0.16 90 1010.7
20260504213246 56 5 0.0 0.0 0.01 0.17 0.16 90 1010.6
20260504212456 56 5 0.0 0.0 0.01 0.17 0.16 90 1010.7
20260504211946 56 26 0.0 0.0 0.01 0.17 0.16 90 1010.7
20260504211710 56 26 0.0 0.0 0.01 0.17 0.16 90 1010.8
20260504210915 56 26 0.0 0.0 0.01 0.17 0.16 90 1010.9
20260504210417 56 26 0.0 0.0 0.01 0.17 0.16 90 1010.9
20260504205917 56 26 0.0 0.0 0.01 0.17 0.16 90 1010.8
20260504205408 56 26 0.0 0.0 0.01 0.17 0.16 90 1010.8
20260504204832 56 26 0.0 0.0 0.01 0.17 0.16 89 1010.9
20260504204318 56 26 0.0 0.0 0.01 0.17 0.16 89 1010.9
20260504203816 56 26 0.0 0.0 0.01 0.17 0.16 89 1011.0
20260504203511 56 26 0.0 0.0 0.01 0.17 0.16 89 1011.0
20260504202741 56 26 0.0 0.0 0.00 0.16 0.15 89 1010.9
20260504202238 56 26 0.0 0.0 0.00 0.16 0.15 89 1010.9
20260504201721 56 26 0.0 0.0 0.00 0.16 0.15 89 1010.7
20260504201448 56 26 0.0 0.0 0.00 0.16 0.15 88 1010.8
20260504200710 57 22 0.0 2.0 0.00 0.17 0.15 88 1010.8
20260504200427 57 22 0.0 2.0 0.00 0.17 0.15 88 1010.8
20260504195656 57 22 0.0 2.0 0.00 0.17 0.15 88 1010.8
20260504195150 57 23 0.0 4.0 0.00 0.17 0.15 88 1010.8
20260504194621 57 23 1.0 4.0 0.00 0.17 0.15 88 1010.6
20260504194121 57 50 0.0 4.0 0.00 0.17 0.15 89 1010.4
20260504193614 57 50 0.0 0.0 0.00 0.17 0.15 89 1010.5
20260504193114 58 50 0.0 2.0 0.00 0.17 0.15 89 1010.6
20260504192612 58 50 0.0 2.0 0.00 0.17 0.15 89 1010.4
20260504192102 58 50 0.0 0.0 0.00 0.17 0.15 89 1010.2
20260504191554 58 50 0.0 1.0 0.00 0.17 0.15 89 1010.1
20260504191032 58 50 0.0 1.0 0.01 0.17 0.15 90 1010.2
20260504190520 58 50 0.0 0.0 0.01 0.17 0.15 90 1010.5
20260504190020 58 50 0.0 0.0 0.01 0.17 0.15 90 1010.5
20260504185518 58 50 0.0 3.0 0.01 0.17 0.15 90 1010.3
20260504184507 58 50 0.0 3.0 0.01 0.17 0.15 90 1010.3
20260504183958 58 50 0.0 3.0 0.01 0.17 0.15 90 1010.3
20260504183454 59 50 0.0 3.0 0.01 0.17 0.15 89 1010.1
20260504182944 59 52 0.0 2.0 0.01 0.17 0.15 89 1010.2
20260504182434 59 55 1.0 4.0 0.01 0.17 0.15 88 1010.2
20260504181923 59 5 1.0 4.0 0.01 0.17 0.15 88 1010.3
20260504181420 59 74 1.0 5.0 0.01 0.17 0.15 88 1010.3
20260504180920 59 78 2.0 6.0 0.00 0.17 0.14 88 1010.4
20260504180420 59 79 3.0 9.0 0.00 0.17 0.14 88 1010.4
20260504175918 59 62 2.0 9.0 0.00 0.17 0.14 88 1010.5
20260504175416 59 62 3.0 9.0 0.00 0.17 0.14 88 1010.4
20260504174905 59 61 3.0 9.0 0.00 0.17 0.14 88 1010.4
20260504174400 60 65 3.0 10.0 0.00 0.17 0.14 88 1010.4
20260504173901 60 68 4.0 10.0 0.01 0.17 0.14 88 1010.5
20260504173356 60 64 3.0 10.0 0.01 0.17 0.14 88 1010.6
20260504172849 60 65 2.0 7.0 0.01 0.17 0.14 89 1010.5
20260504172346 61 66 2.0 6.0 0.01 0.17 0.14 89 1010.4
20260504172113 61 46 2.0 7.0 0.01 0.17 0.14 88 1010.5
20260504171609 61 68 2.0 7.0 0.01 0.17 0.14 89 1010.3
20260504170828 61 53 1.0 7.0 0.01 0.17 0.14 89 1010.3
20260504170328 61 59 1.0 7.0 0.01 0.17 0.14 89 1010.4
20260504160220 61 62 2.0 6.0 0.01 0.17 0.13 89 1010.3
20260504150911 60 61 2.0 7.0 0.00 0.17 0.13 91 1010.4
20260504150141 60 49 1.0 5.0 0.00 0.17 0.13 91 1010.5
20260504141117 60 35 1.0 7.0 0.01 0.18 0.13 92 1010.7
20260504140617 59 38 2.0 6.0 0.01 0.18 0.13 92 1010.7
20260504140115 59 15 2.0 6.0 0.01 0.19 0.13 91 1010.9
20260504130654 59 44 2.0 7.0 0.01 0.19 0.12 91 1010.9
20260504110248 60 78 0.0 4.0 0.01 0.19 0.10 93 1011.4
20260504100110 60 333 0.0 0.0 0.01 0.19 0.09 92 1011.6
20260504081706 59 66 0.0 0.0 0.01 0.19 0.08 94 1011.4
20260504081153 58 66 0.0 0.0 0.01 0.19 0.08 94 1011.4
20260504080650 58 66 0.0 0.0 0.01 0.20 0.08 94 1011.5
20260504080142 58 66 0.0 0.0 0.01 0.20 0.08 94 1011.5
20260504060228 56 55 0.0 0.0 0.01 0.20 0.06 94 1011.0
20260504050517 57 264 0.0 0.0 0.01 0.20 0.06 94 1010.9
20260504050017 57 264 0.0 0.0 0.01 0.20 0.06 94 1011.1
20260504045748 57 264 0.0 0.0 0.01 0.20 0.06 94 1010.8
20260504045008 57 264 0.0 0.0 0.01 0.21 0.06 94 1010.9
20260504044502 57 264 0.0 0.0 0.01 0.21 0.06 94 1010.8
20260504043952 57 264 0.0 0.0 0.01 0.21 0.06 94 1010.8
20260504043712 57 264 0.0 0.0 0.01 0.21 0.06 94 1010.9
20260504042936 57 264 0.0 0.0 0.02 0.21 0.06 94 1010.8
20260504042421 57 264 0.0 0.0 0.01 0.20 0.05 94 1010.9
20260504041920 57 264 0.0 0.0 0.01 0.20 0.05 94 1010.9
20260504041416 57 264 0.0 0.0 0.01 0.21 0.05 94 1010.9
20260504040915 57 264 0.0 0.0 0.01 0.21 0.05 94 1010.9
20260504040357 57 264 0.0 0.0 0.01 0.21 0.05 94 1010.9
20260504035822 57 264 0.0 0.0 0.01 0.21 0.05 94 1010.9
20260504035259 57 264 0.0 0.0 0.01 0.21 0.05 94 1011.0
20260504034949 57 264 0.0 0.0 0.01 0.21 0.05 94 1011.1
20260504034216 57 264 0.0 0.0 0.02 0.22 0.05 94 1011.1
20260504033716 57 264 0.0 0.0 0.02 0.22 0.05 94 1011.0
20260504033213 57 264 0.0 0.0 0.01 0.21 0.04 94 1011.0
20260504032707 57 264 0.0 0.0 0.01 0.21 0.04 94 1011.0
20260504032157 57 264 0.0 0.0 0.01 0.21 0.04 94 1011.1
20260504031631 57 264 0.0 0.0 0.01 0.21 0.04 94 1011.1
20260504031352 57 264 0.0 0.0 0.01 0.22 0.04 94 1011.0
20260504030605 57 264 0.0 0.0 0.01 0.22 0.04 94 1011.0
20260504030021 57 264 0.0 0.0 0.01 0.22 0.04 93 1011.0
20260504025451 57 264 0.0 0.0 0.01 0.22 0.04 93 1011.1
20260504024944 57 264 0.0 0.0 0.02 0.22 0.04 93 1011.2
20260504024652 57 264 0.0 0.0 0.01 0.22 0.03 93 1011.2
20260504023921 57 264 0.0 0.0 0.01 0.22 0.03 93 1011.1
20260504023417 57 264 0.0 0.0 0.01 0.22 0.03 93 1011.1
20260504022915 57 264 0.0 0.0 0.01 0.22 0.03 94 1011.1
20260504022407 57 264 0.0 0.0 0.01 0.22 0.03 94 1011.2
20260504021900 57 264 0.0 0.0 0.01 0.22 0.03 93 1011.2
20260504021323 57 264 0.0 0.0 0.01 0.22 0.03 93 1011.2
20260504020821 57 264 0.0 0.0 0.01 0.22 0.03 94 1011.1
20260504020550 57 264 0.0 0.0 0.02 0.23 0.03 94 1011.2
20260504015806 57 264 0.0 0.0 0.02 0.23 0.03 94 1011.3
20260504015219 57 264 0.0 0.0 0.01 0.22 0.03 94 1011.3
20260504014719 57 264 0.0 0.0 0.01 0.22 0.02 94 1011.2
20260504014211 57 264 0.0 0.0 0.01 0.22 0.02 94 1011.4
20260504013650 57 264 0.0 0.0 0.01 0.23 0.02 93 1011.4
20260504013151 57 264 0.0 0.0 0.01 0.23 0.02 93 1011.3
20260504012631 57 264 0.0 0.0 0.01 0.23 0.02 93 1011.4
20260504012117 58 264 0.0 0.0 0.01 0.23 0.02 93 1011.3
20260504011813 58 264 0.0 0.0 0.02 0.23 0.02 93 1011.5
20260504011259 58 264 0.0 0.0 0.02 0.23 0.02 93 1011.6
20260504010519 58 264 0.0 0.0 0.01 0.23 0.02 93 1011.6
20260504010019 58 264 0.0 0.0 0.01 0.23 0.02 93 1011.6
20260504005747 58 264 0.0 0.0 0.01 0.23 0.02 93 1011.6
20260504005236 58 264 0.0 1.0 0.01 0.23 0.02 93 1011.7
20260504004444 58 261 0.0 1.0 0.01 0.23 0.02 93 1011.6
20260504003941 58 282 0.0 0.0 0.01 0.23 0.02 93 1011.6
20260504003657 58 284 0.0 0.0 0.01 0.23 0.02 93 1011.6
20260504002919 58 284 0.0 0.0 0.01 0.24 0.02 93 1011.7
20260504002418 58 284 0.0 0.0 0.01 0.24 0.02 93 1011.7
20260504001916 58 284 0.0 0.0 0.01 0.24 0.02 93 1011.6
20260504001356 58 284 0.0 0.0 0.01 0.23 0.01 93 1011.7
20260504000854 59 284 0.0 0.0 0.01 0.23 0.01 92 1011.7
20260504000333 59 278 0.0 6.0 0.01 0.23 0.01 92 1011.9
20260503235832 59 279 0.0 6.0 0.01 0.23 0.01 92 1012.0
20260503235323 60 271 0.0 0.0 0.01 0.24 0.01 93 1011.9
20260503235047 60 271 0.0 0.0 0.01 0.24 0.01 93 1011.8
20260503234306 60 273 0.0 0.0 0.01 0.24 0.01 93 1012.0
20260503233719 60 273 0.0 0.0 0.01 0.24 0.01 93 1011.9
20260503233222 59 273 0.0 0.0 0.01 0.24 0.01 93 1011.9
20260503232718 60 273 0.0 0.0 0.01 0.24 0.01 93 1012.0
20260503232214 60 273 0.0 0.0 0.01 0.24 0.01 93 1012.0
20260503231706 60 273 0.0 0.0 0.01 0.24 0.01 93 1012.0
20260503231134 60 274 0.0 0.0 0.00 0.24 0.00 93 1011.9
20260503230626 60 274 0.0 0.0 0.00 0.24 0.00 93 1011.9
20260503230047 60 274 0.0 0.0 0.00 0.24 0.00 92 1011.9
20260503225522 60 274 0.0 0.0 0.00 0.24 0.00 92 1012.0
20260503225014 60 274 0.0 0.0 0.00 0.24 0.00 92 1012.0
20260503224746 60 274 0.0 0.0 0.00 0.24 0.00 92 1011.9
20260503223959 60 274 0.0 0.0 0.01 0.24 0.00 92 1012.0
20260503223653 60 274 0.0 0.0 0.01 0.24 0.00 92 1011.9
20260503222922 60 274 0.0 0.0 0.01 0.24 0.00 92 1012.0
20260503222405 60 274 0.0 0.0 0.01 0.24 0.00 92 1011.8
20260503221830 60 274 0.0 0.0 0.01 0.25 0.00 92 1011.9
20260503221322 60 274 0.0 0.0 0.01 0.25 0.00 92 1012.0
20260503220814 60 274 0.0 0.0 0.01 0.25 0.00 92 1011.9
20260503220251 60 274 0.0 0.0 0.01 0.25 0.00 92 1012.0
20260503215745 60 274 0.0 0.0 0.01 0.25 0.25 92 1011.9
20260503215235 60 274 0.0 0.0 0.01 0.26 0.25 92 1011.9
20260503214722 60 274 0.0 0.0 0.01 0.26 0.25 92 1011.9
20260503214206 60 274 0.0 0.0 0.00 0.25 0.25 92 1011.8